• In Österreich
  • Länderverzeichnis
  • Für 7 Tage
  • Wassertemperatur
  • Satellitenkarten
  • Wetterkarte
  • News
  • Widgets
  • user-avatar
    Anmelden

    Stündliche Wetter Limanowa

    Heute, 19 April, Donnerstag

    Zeit Temperatur Niederschläge Wind Luftdruck Luftfeuchtigkeit
    00:00 +10°C° 0 mm 1 m/S 733 mmHg 77%
    01:00 +9°C° 0 mm 1 m/S 733 mmHg 80%
    02:00 +9°C° 0 mm 1 m/S 732 mmHg 79%
    03:00 +8°C° 0 mm 2 m/S 732 mmHg 79%
    04:00 +8°C° 0 mm 2 m/S 732 mmHg 78%
    05:00 +9°C° 0 mm 2 m/S 732 mmHg 74%
    06:00 +12°C° 0 mm 2 m/S 732 mmHg 70%
    07:00 +13°C° 0 mm 3 m/S 732 mmHg 65%
    08:00 +14°C° 0 mm 3 m/S 732 mmHg 62%
    09:00 +17°C° 0 mm 4 m/S 732 mmHg 59%
    10:00 +18°C° 0 mm 4 m/S 732 mmHg 56%
    11:00 +19°C° 0 mm 5 m/S 732 mmHg 54%
    12:00 +20°C° 0 mm 5 m/S 731 mmHg 51%
    13:00 +21°C° 0 mm 5 m/S 731 mmHg 49%
    14:00 +20°C° 0 mm 5 m/S 731 mmHg 50%
    15:00 +20°C° 0 mm 5 m/S 731 mmHg 51%
    16:00 +20°C° 0 mm 5 m/S 730 mmHg 52%
    17:00 +18°C° 0 mm 4 m/S 730 mmHg 59%
    18:00 +15°C° 0 mm 4 m/S 730 mmHg 66%
    19:00 +14°C° 0 mm 3 m/S 730 mmHg 73%
    20:00 +13°C° 0 mm 3 m/S 730 mmHg 77%
    21:00 +12°C° 0 mm 3 m/S 730 mmHg 80%
    22:00 +12°C° 0 mm 2 m/S 730 mmHg 83%
    23:00 +10°C° 0 mm 2 m/S 730 mmHg 85%

    Morgen, 20 April, Freitag

    Zeit Temperatur Niederschläge Wind Luftdruck Luftfeuchtigkeit
    00:00 +9°C° 0 mm 2 m/S 731 mmHg 87%
    01:00 +8°C° 0 mm 2 m/S 731 mmHg 88%
    02:00 +9°C° 0 mm 1 m/S 731 mmHg 89%
    03:00 +8°C° 0 mm 1 m/S 730 mmHg 90%
    04:00 +7°C° 0 mm 1 m/S 730 mmHg 91%
    05:00 +8°C° 0 mm 1 m/S 731 mmHg 84%
    06:00 +10°C° 0 mm 1 m/S 731 mmHg 78%
    07:00 +11°C° 0 mm 1 m/S 731 mmHg 71%
    08:00 +12°C° 0 mm 2 m/S 731 mmHg 63%
    09:00 +14°C° 0 mm 2 m/S 731 mmHg 55%
    10:00 +16°C° 0 mm 2 m/S 731 mmHg 47%
    11:00 +17°C° 0 mm 2 m/S 731 mmHg 44%
    12:00 +17°C° 0 mm 2 m/S 731 mmHg 42%
    13:00 +18°C° 0 mm 3 m/S 731 mmHg 39%
    14:00 +18°C° 0 mm 2 m/S 730 mmHg 40%
    15:00 +18°C° 0 mm 2 m/S 730 mmHg 41%
    16:00 +18°C° 0 mm 2 m/S 730 mmHg 42%
    17:00 +16°C° 0 mm 1 m/S 729 mmHg 49%
    18:00 +14°C° 0 mm 1 m/S 729 mmHg 55%
    19:00 +12°C° 0 mm 1 m/S 729 mmHg 62%
    20:00 +12°C° 0 mm 1 m/S 729 mmHg 64%
    21:00 +11°C° 0 mm 1 m/S 729 mmHg 65%
    22:00 +11°C° 0 mm 1 m/S 729 mmHg 67%
    23:00 +10°C° 0 mm 1 m/S 728 mmHg 66%

    übermorgen, 21 April, Samstag

    Zeit Temperatur Niederschläge Wind Luftdruck Luftfeuchtigkeit
    00:00 +9°C° 0 mm 2 m/S 728 mmHg 66%
    01:00 +9°C° 0 mm 2 m/S 728 mmHg 65%
    02:00 +9°C° 0 mm 2 m/S 727 mmHg 65%
    03:00 +8°C° 0 mm 2 m/S 727 mmHg 65%
    04:00 +8°C° 0 mm 2 m/S 727 mmHg 65%
    05:00 +10°C° 0 mm 2 m/S 727 mmHg 63%
    06:00 +13°C° 0 mm 2 m/S 727 mmHg 61%
    07:00 +14°C° 0 mm 2 m/S 727 mmHg 58%
    08:00 +17°C° 0 mm 3 m/S 727 mmHg 52%
    09:00 +19°C° 0 mm 3 m/S 727 mmHg 46%
    10:00 +21°C° 0 mm 4 m/S 727 mmHg 40%
    11:00 +22°C° 0 mm 4 m/S 726 mmHg 39%
    12:00 +23°C° 0 mm 4 m/S 726 mmHg 38%
    13:00 +25°C° 0 mm 4 m/S 726 mmHg 38%
    14:00 +25°C° 0 mm 4 m/S 725 mmHg 40%
    15:00 +23°C° 0 mm 4 m/S 725 mmHg 43%
    16:00 +23°C° 0 mm 4 m/S 724 mmHg 46%
    17:00 +21°C° 0 mm 3 m/S 724 mmHg 54%
    18:00 +19°C° 0 mm 3 m/S 724 mmHg 63%
    19:00 +17°C° 0 mm 2 m/S 724 mmHg 72%
    20:00 +16°C° 0 mm 2 m/S 724 mmHg 75%
    21:00 +15°C° 0 mm 1 m/S 724 mmHg 78%
    22:00 +14°C° 0 mm 1 m/S 724 mmHg 81%
    23:00 +13°C° 0 mm 1 m/S 724 mmHg 83%

    22 April, Sonntag

    Zeit Temperatur Niederschläge Wind Luftdruck Luftfeuchtigkeit
    00:00 +13°C° 0 mm 1 m/S 724 mmHg 85%
    01:00 +12°C° 0 mm 1 m/S 724 mmHg 87%
    02:00 +11°C° 0 mm 1 m/S 724 mmHg 87%
    03:00 +11°C° 0 mm 1 m/S 724 mmHg 87%
    04:00 +10°C° 0 mm 1 m/S 724 mmHg 87%
    05:00 +11°C° 0 mm 1 m/S 724 mmHg 81%
    06:00 +12°C° 0 mm 1 m/S 724 mmHg 75%
    07:00 +14°C° 0 mm 1 m/S 724 mmHg 69%
    08:00 +15°C° 0 mm 1 m/S 724 mmHg 61%
    09:00 +17°C° 0 mm 2 m/S 724 mmHg 54%
    10:00 +18°C° 0 mm 2 m/S 724 mmHg 46%
    11:00 +19°C° 0 mm 2 m/S 724 mmHg 43%
    12:00 +20°C° 0 mm 3 m/S 724 mmHg 41%
    13:00 +21°C° 0 mm 3 m/S 724 mmHg 39%
    14:00 +20°C° 0 mm 3 m/S 723 mmHg 39%
    15:00 +20°C° 0 mm 2 m/S 723 mmHg 40%
    16:00 +20°C° 0 mm 2 m/S 723 mmHg 40%
    17:00 +18°C° 0 mm 2 m/S 722 mmHg 46%
    18:00 +16°C° 0 mm 1 m/S 722 mmHg 53%
    19:00 +12°C° 0 mm 0 m/S 722 mmHg 59%
    20:00 +13°C° 0 mm 1 m/S 722 mmHg 61%
    21:00 +12°C° 0 mm 1 m/S 722 mmHg 62%
    22:00 +12°C° 0 mm 1 m/S 722 mmHg 64%
    23:00 +11°C° 0 mm 1 m/S 721 mmHg 66%

    23 April, Montag

    Zeit Temperatur Niederschläge Wind Luftdruck Luftfeuchtigkeit
    00:00 +11°C° 0 mm 1 m/S 721 mmHg 67%
    01:00 +11°C° 0 mm 1 m/S 721 mmHg 69%
    02:00 +11°C° 0 mm 1 m/S 720 mmHg 71%
    03:00 +11°C° 0 mm 1 m/S 720 mmHg 73%
    04:00 +11°C° 0 mm 1 m/S 719 mmHg 74%
    05:00 +12°C° 0 mm 1 m/S 719 mmHg 73%
    06:00 +14°C° 0 mm 2 m/S 719 mmHg 72%
    07:00 +15°C° 0 mm 2 m/S 719 mmHg 71%
    08:00 +17°C° 0 mm 2 m/S 719 mmHg 66%
    09:00 +19°C° 0 mm 3 m/S 719 mmHg 62%
    10:00 +21°C° 0 mm 3 m/S 719 mmHg 58%
    11:00 +21°C° 0,1 mm 4 m/S 718 mmHg 56%
    12:00 +22°C° 0,1 mm 4 m/S 718 mmHg 54%
    13:00 +22°C° 0,1 mm 5 m/S 718 mmHg 52%
    14:00 +22°C° 0,4 mm 5 m/S 717 mmHg 55%
    15:00 +21°C° 0,4 mm 5 m/S 717 mmHg 58%
    16:00 +21°C° 0,4 mm 5 m/S 717 mmHg 61%
    17:00 +19°C° 0,4 mm 4 m/S 717 mmHg 68%
    18:00 +17°C° 0,4 mm 4 m/S 717 mmHg 74%
    19:00 +14°C° 0,4 mm 3 m/S 716 mmHg 81%
    20:00 +13°C° 0 mm 3 m/S 717 mmHg 83%
    21:00 +12°C° 0 mm 3 m/S 717 mmHg 85%
    22:00 +12°C° 0 mm 3 m/S 718 mmHg 88%
    23:00 +11°C° 0 mm 3 m/S 718 mmHg 87%

    24 April, Dienstag

    Zeit Temperatur Niederschläge Wind Luftdruck Luftfeuchtigkeit
    00:00 +11°C° 0 mm 3 m/S 718 mmHg 86%
    01:00 +11°C° 0 mm 3 m/S 718 mmHg 85%
    02:00 +10°C° 0 mm 3 m/S 718 mmHg 86%
    03:00 +9°C° 0 mm 3 m/S 718 mmHg 88%
    04:00 +8°C° 0 mm 3 m/S 718 mmHg 90%
    05:00 +9°C° 0 mm 3 m/S 718 mmHg 83%
    06:00 +10°C° 0 mm 4 m/S 718 mmHg 77%
    07:00 +11°C° 0 mm 4 m/S 718 mmHg 71%
    08:00 +12°C° 0,1 mm 5 m/S 718 mmHg 68%
    09:00 +13°C° 0,1 mm 5 m/S 718 mmHg 65%
    10:00 +14°C° 0,1 mm 5 m/S 718 mmHg 62%
    11:00 +14°C° 0,4 mm 5 m/S 718 mmHg 65%
    12:00 +14°C° 0,4 mm 6 m/S 718 mmHg 68%
    13:00 +14°C° 0,4 mm 6 m/S 718 mmHg 71%
    14:00 +13°C° 0,5 mm 6 m/S 718 mmHg 72%
    15:00 +11°C° 0,5 mm 6 m/S 718 mmHg 72%
    16:00 +11°C° 0,5 mm 6 m/S 718 mmHg 73%
    17:00 +10°C° 0,1 mm 5 m/S 718 mmHg 75%
    18:00 +10°C° 0,1 mm 4 m/S 719 mmHg 77%
    19:00 +9°C° 0,1 mm 3 m/S 719 mmHg 80%
    20:00 +8°C° 0 mm 2 m/S 720 mmHg 82%
    21:00 +8°C° 0 mm 2 m/S 720 mmHg 84%
    22:00 +7°C° 0 mm 2 m/S 720 mmHg 86%
    23:00 +7°C° 0 mm 2 m/S 720 mmHg 86%
    Mehr zeigen